| time (UTC) | temp F | wind direction | speed knots | gust knots | rain 1hr in | rain 24hr in | rain mn in | humidity % | barometer mb |
| 20260510143708 | 64 | 47 | 0.0 | 0.0 | 0.00 | 0.00 | 0.00 | 79 | 1015.8 |
| 20260510143205 | 64 | 161 | 0.9 | 0.9 | 0.00 | 0.00 | 0.00 | 79 | 1015.9 |
| 20260510142701 | 64 | 3 | 0.9 | 1.7 | 0.00 | 0.00 | 0.00 | 79 | 1015.7 |
| 20260510142158 | 64 | 59 | 0.0 | 0.0 | 0.00 | 0.00 | 0.00 | 80 | 1015.6 |
| 20260510141655 | 64 | 64 | 0.0 | 0.0 | 0.00 | 0.00 | 0.00 | 80 | 1015.7 |
| 20260510141154 | 64 | 55 | 0.0 | 0.0 | 0.00 | 0.00 | 0.00 | 80 | 1015.8 |
| 20260510140649 | 64 | 44 | 0.0 | 0.9 | 0.00 | 0.00 | 0.00 | 79 | 1015.9 |
| 20260510140149 | 64 | 295 | 2.6 | 3.5 | 0.00 | 0.00 | 0.00 | 79 | 1016.0 |
| 20260510135644 | 64 | 274 | 4.3 | 5.2 | 0.00 | 0.00 | 0.00 | 79 | 1015.9 |
| 20260510135140 | 64 | 281 | 3.5 | 3.5 | 0.00 | 0.00 | 0.00 | 80 | 1015.6 |
| 20260510134637 | 63 | 41 | 0.9 | 1.7 | 0.00 | 0.00 | 0.00 | 81 | 1016.0 |
| 20260510134135 | 63 | 276 | 2.6 | 3.5 | 0.00 | 0.00 | 0.00 | 83 | 1016.0 |
| 20260510133631 | 63 | 307 | 2.6 | 2.6 | 0.00 | 0.00 | 0.00 | 84 | 1016.1 |
| 20260510133126 | 62 | 358 | 0.9 | 1.7 | 0.00 | 0.00 | 0.00 | 84 | 1016.2 |
| 20260510132623 | 62 | 261 | 0.0 | 0.9 | 0.00 | 0.00 | 0.00 | 84 | 1016.3 |
| 20260510132121 | 62 | 54 | 0.0 | 0.0 | 0.00 | 0.00 | 0.00 | 84 | 1016.2 |
| 20260510131618 | 62 | 244 | 0.9 | 1.7 | 0.00 | 0.00 | 0.00 | 85 | 1016.2 |
| 20260510131115 | 62 | 63 | 0.0 | 0.0 | 0.00 | 0.00 | 0.00 | 86 | 1016.1 |
| 20260510130611 | 62 | 65 | 0.0 | 0.0 | 0.00 | 0.00 | 0.00 | 86 | 1016.1 |
| 20260510130109 | 62 | 64 | 0.0 | 0.0 | 0.00 | 0.00 | 0.00 | 86 | 1015.9 |
| 20260510125605 | 62 | 58 | 0.0 | 0.0 | 0.00 | 0.00 | 0.00 | 86 | 1016.2 |
| 20260510125102 | 62 | 100 | 0.0 | 0.0 | 0.00 | 0.00 | 0.00 | 86 | 1016.0 |
| 20260510124558 | 62 | 35 | 0.0 | 0.0 | 0.00 | 0.00 | 0.00 | 86 | 1016.0 |
| 20260510124055 | 62 | 155 | 0.9 | 0.9 | 0.00 | 0.00 | 0.00 | 85 | 1015.8 |
| 20260510123550 | 62 | 244 | 0.0 | 0.9 | 0.00 | 0.00 | 0.00 | 85 | 1015.3 |
| 20260510123047 | 62 | 11 | 0.0 | 0.0 | 0.00 | 0.00 | 0.00 | 85 | 1015.3 |
| 20260510122543 | 62 | 73 | 0.0 | 0.0 | 0.00 | 0.00 | 0.00 | 84 | 1015.1 |
| 20260510122039 | 62 | 137 | 0.0 | 0.0 | 0.00 | 0.00 | 0.00 | 84 | 1014.7 |
| 20260510121536 | 63 | 50 | 0.0 | 0.0 | 0.00 | 0.00 | 0.00 | 84 | 1014.5 |
| 20260510121033 | 63 | 60 | 0.0 | 0.0 | 0.00 | 0.00 | 0.00 | 83 | 1014.3 |
| 20260510120531 | 63 | 120 | 0.0 | 0.0 | 0.00 | 0.00 | 0.00 | 83 | 1014.2 |
| 20260510120026 | 63 | 351 | 0.0 | 0.0 | 0.00 | 0.00 | 0.00 | 83 | 1014.2 |
| 20260510115523 | 62 | 61 | 0.0 | 0.0 | 0.00 | 0.00 | 0.00 | 84 | 1014.0 |
| 20260510115020 | 62 | 52 | 0.0 | 0.0 | 0.00 | 0.00 | 0.00 | 83 | 1013.7 |
| 20260510114516 | 63 | 48 | 0.0 | 0.0 | 0.00 | 0.00 | 0.00 | 83 | 1013.3 |
| 20260510114012 | 63 | 45 | 0.0 | 0.0 | 0.00 | 0.00 | 0.00 | 83 | 1013.3 |
| 20260510113508 | 62 | 16 | 0.0 | 0.0 | 0.00 | 0.00 | 0.00 | 83 | 1013.4 |
| 20260510113005 | 62 | 358 | 0.0 | 0.0 | 0.00 | 0.00 | 0.00 | 84 | 1012.9 |
| 20260510112502 | 61 | 34 | 0.0 | 0.0 | 0.00 | 0.00 | 0.00 | 85 | 1013.1 |
| 20260510111958 | 62 | 47 | 0.0 | 0.0 | 0.00 | 0.00 | 0.00 | 84 | 1013.0 |
| 20260510111454 | 62 | 46 | 0.0 | 0.0 | 0.00 | 0.00 | 0.00 | 83 | 1013.0 |
| 20260510110950 | 62 | 40 | 0.0 | 0.0 | 0.00 | 0.00 | 0.00 | 84 | 1012.9 |
| 20260510110447 | 62 | 55 | 0.0 | 0.0 | 0.00 | 0.00 | 0.00 | 83 | 1012.9 |
| 20260510105943 | 62 | 55 | 0.0 | 0.0 | 0.00 | 0.00 | 0.00 | 82 | 1012.7 |
| 20260510105438 | 62 | 55 | 0.0 | 0.0 | 0.00 | 0.00 | 0.00 | 81 | 1012.6 |
| 20260510104934 | 63 | 55 | 0.0 | 0.0 | 0.00 | 0.00 | 0.00 | 81 | 1012.6 |
| 20260510104431 | 63 | 55 | 0.0 | 0.0 | 0.00 | 0.00 | 0.00 | 80 | 1012.4 |
| 20260510103928 | 63 | 55 | 0.0 | 0.0 | 0.00 | 0.00 | 0.00 | 80 | 1012.4 |
| 20260510103426 | 63 | 54 | 0.0 | 0.0 | 0.00 | 0.00 | 0.00 | 80 | 1012.3 |
| 20260510102925 | 63 | 51 | 0.0 | 0.0 | 0.00 | 0.00 | 0.00 | 80 | 1012.3 |
| 20260510102422 | 63 | 49 | 0.0 | 0.0 | 0.00 | 0.00 | 0.00 | 80 | 1012.4 |
| 20260510101919 | 63 | 47 | 0.0 | 0.0 | 0.00 | 0.00 | 0.00 | 80 | 1012.2 |
| 20260510101417 | 63 | 51 | 0.0 | 0.0 | 0.00 | 0.00 | 0.00 | 80 | 1012.3 |
| 20260510100914 | 63 | 54 | 0.0 | 0.0 | 0.00 | 0.00 | 0.00 | 79 | 1012.2 |
| 20260510100411 | 63 | 53 | 0.0 | 0.0 | 0.00 | 0.00 | 0.00 | 79 | 1012.1 |
| 20260510095907 | 63 | 53 | 0.0 | 0.0 | 0.00 | 0.00 | 0.00 | 78 | 1012.2 |
| 20260510095402 | 64 | 53 | 0.0 | 0.0 | 0.00 | 0.00 | 0.00 | 77 | 1012.0 |
| 20260510094902 | 63 | 53 | 0.0 | 0.0 | 0.00 | 0.00 | 0.00 | 78 | 1012.0 |
| 20260510094357 | 63 | 49 | 0.0 | 0.0 | 0.00 | 0.00 | 0.00 | 79 | 1011.9 |
| 20260510093854 | 64 | 57 | 0.0 | 0.0 | 0.00 | 0.00 | 0.00 | 78 | 1011.9 |
| 20260510093349 | 64 | 58 | 0.0 | 0.0 | 0.00 | 0.00 | 0.00 | 77 | 1011.7 |
| 20260510092846 | 64 | 58 | 0.0 | 0.0 | 0.00 | 0.00 | 0.00 | 76 | 1011.7 |
| 20260510092342 | 64 | 58 | 0.0 | 0.0 | 0.00 | 0.00 | 0.00 | 75 | 1011.5 |
| 20260510091838 | 65 | 59 | 0.0 | 0.0 | 0.00 | 0.00 | 0.00 | 74 | 1011.5 |
| 20260510091335 | 65 | 54 | 0.0 | 0.0 | 0.00 | 0.00 | 0.00 | 73 | 1011.8 |
| 20260510090832 | 66 | 52 | 0.0 | 0.0 | 0.00 | 0.00 | 0.00 | 72 | 1011.7 |
| 20260510090328 | 66 | 48 | 0.0 | 0.0 | 0.00 | 0.00 | 0.00 | 71 | 1011.5 |
| 20260510085824 | 66 | 49 | 0.0 | 0.0 | 0.00 | 0.00 | 0.00 | 70 | 1011.8 |
| 20260510085324 | 67 | 48 | 0.0 | 0.9 | 0.00 | 0.00 | 0.00 | 69 | 1011.5 |
| 20260510084820 | 67 | 359 | 1.7 | 1.7 | 0.00 | 0.00 | 0.00 | 69 | 1011.3 |
| 20260510084317 | 66 | 16 | 0.9 | 1.7 | 0.00 | 0.00 | 0.00 | 70 | 1011.2 |
| 20260510083814 | 66 | 331 | 1.7 | 1.7 | 0.00 | 0.00 | 0.00 | 70 | 1011.1 |
| 20260510083311 | 66 | 23 | 0.0 | 0.0 | 0.00 | 0.00 | 0.00 | 71 | 1010.6 |
| 20260510082806 | 66 | 40 | 0.0 | 0.9 | 0.00 | 0.00 | 0.00 | 71 | 1010.2 |
| 20260510082306 | 66 | 37 | 0.9 | 0.9 | 0.00 | 0.00 | 0.00 | 71 | 1010.1 |
| 20260510081802 | 67 | 49 | 0.9 | 0.9 | 0.00 | 0.00 | 0.00 | 70 | 1009.9 |
| 20260510081258 | 67 | 49 | 0.9 | 1.7 | 0.00 | 0.00 | 0.00 | 70 | 1009.6 |
| 20260510080754 | 67 | 278 | 2.6 | 2.6 | 0.00 | 0.00 | 0.00 | 71 | 1010.0 |
| 20260510080249 | 67 | 42 | 1.7 | 2.6 | 0.00 | 0.00 | 0.00 | 72 | 1009.8 |
| 20260510075746 | 67 | 1 | 2.6 | 3.5 | 0.00 | 0.00 | 0.00 | 70 | 1009.6 |
| 20260510075244 | 67 | 36 | 0.9 | 0.9 | 0.00 | 0.00 | 0.00 | 70 | 1009.0 |
| 20260510074741 | 68 | 72 | 0.9 | 1.7 | 0.00 | 0.00 | 0.00 | 70 | 1008.9 |
| 20260510074237 | 68 | 185 | 2.6 | 2.6 | 0.00 | 0.00 | 0.00 | 68 | 1008.9 |
| 20260510073733 | 68 | 137 | 0.9 | 0.9 | 0.00 | 0.00 | 0.00 | 68 | 1008.5 |
| 20260510073230 | 67 | 131 | 2.6 | 2.6 | 0.00 | 0.00 | 0.00 | 69 | 1008.5 |
| 20260510072725 | 67 | 98 | 1.7 | 1.7 | 0.00 | 0.00 | 0.00 | 70 | 1008.2 |
| 20260510072222 | 66 | 145 | 1.7 | 3.5 | 0.00 | 0.00 | 0.00 | 70 | 1009.2 |
| 20260510071719 | 66 | 67 | 1.7 | 1.7 | 0.00 | 0.00 | 0.00 | 74 | 1010.4 |
| 20260510071215 | 66 | 78 | 3.5 | 5.2 | 0.00 | 0.00 | 0.00 | 75 | 1010.3 |
| 20260510070714 | 66 | 122 | 2.6 | 5.2 | 0.00 | 0.00 | 0.00 | 73 | 1010.2 |
| 20260510070210 | 66 | 93 | 2.6 | 3.5 | 0.00 | 0.00 | 0.00 | 71 | 1010.1 |
| 20260510065706 | 66 | 198 | 2.6 | 5.2 | 0.00 | 0.00 | 0.00 | 71 | 1010.2 |
| 20260510065202 | 67 | 95 | 4.3 | 6.1 | 0.00 | 0.00 | 0.00 | 69 | 1009.5 |
| 20260510064659 | 68 | 140 | 5.2 | 7.0 | 0.00 | 0.00 | 0.00 | 66 | 1009.9 |
| 20260510064156 | 69 | 111 | 3.5 | 5.2 | 0.00 | 0.00 | 0.00 | 62 | 1011.6 |
| 20260510063653 | 69 | 102 | 0.9 | 1.7 | 0.00 | 0.00 | 0.00 | 61 | 1012.8 |
| 20260510063149 | 70 | 162 | 5.2 | 7.8 | 0.00 | 0.00 | 0.00 | 60 | 1013.1 |
| 20260510062646 | 70 | 99 | 0.9 | 1.7 | 0.00 | 0.00 | 0.00 | 59 | 1013.5 |
| 20260510062142 | 70 | 138 | 3.5 | 3.5 | 0.00 | 0.00 | 0.00 | 58 | 1013.4 |
| 20260510061637 | 70 | 173 | 1.7 | 2.6 | 0.00 | 0.00 | 0.00 | 60 | 1012.8 |
| 20260510061135 | 70 | 135 | 0.9 | 1.7 | 0.00 | 0.00 | 0.00 | 60 | 1012.7 |
| 20260510060631 | 70 | 61 | 0.0 | 0.0 | 0.00 | 0.00 | 0.00 | 63 | 1012.7 |
| 20260510060127 | 70 | 69 | 0.9 | 0.9 | 0.00 | 0.00 | 0.00 | 63 | 1012.5 |
| 20260510055624 | 69 | 44 | 0.0 | 0.0 | 0.00 | 0.00 | 0.00 | 65 | 1012.5 |
| 20260510055122 | 70 | 38 | 0.0 | 0.0 | 0.00 | 0.00 | 0.00 | 65 | 1012.4 |
| 20260510054617 | 70 | 41 | 0.9 | 0.9 | 0.00 | 0.00 | 0.00 | 64 | 1012.5 |
| 20260510054112 | 71 | 32 | 0.0 | 0.9 | 0.00 | 0.00 | 0.00 | 60 | 1012.8 |
| 20260510053612 | 71 | 66 | 0.0 | 0.0 | 0.00 | 0.00 | 0.00 | 59 | 1012.8 |
| 20260510053109 | 72 | 66 | 0.9 | 0.9 | 0.00 | 0.00 | 0.00 | 58 | 1012.8 |
| 20260510052605 | 72 | 38 | 1.7 | 1.7 | 0.00 | 0.00 | 0.00 | 57 | 1013.0 |
| 20260510052101 | 72 | 317 | 1.7 | 1.7 | 0.00 | 0.00 | 0.00 | 57 | 1013.1 |
| 20260510051557 | 72 | 43 | 0.9 | 1.7 | 0.00 | 0.00 | 0.00 | 57 | 1013.0 |
| 20260510051054 | 72 | 338 | 1.7 | 2.6 | 0.00 | 0.00 | 0.00 | 56 | 1012.9 |
| 20260510050551 | 72 | 308 | 3.5 | 5.2 | 0.00 | 0.00 | 0.00 | 57 | 1012.8 |
| 20260510050049 | 71 | 8 | 1.7 | 2.6 | 0.00 | 0.00 | 0.00 | 58 | 1012.7 |
| 20260510045546 | 70 | 289 | 2.6 | 2.6 | 0.00 | 0.00 | 0.00 | 61 | 1012.7 |
| 20260510045041 | 68 | 351 | 1.7 | 1.7 | 0.00 | 0.00 | 0.00 | 66 | 1012.0 |
| 20260510044538 | 68 | 43 | 0.0 | 0.0 | 0.00 | 0.00 | 0.00 | 73 | 1011.6 |
| 20260510044036 | 68 | 322 | 2.6 | 2.6 | 0.00 | 0.00 | 0.00 | 69 | 1011.6 |
| 20260510043531 | 67 | 14 | 0.0 | 0.0 | 0.00 | 0.00 | 0.00 | 72 | 1011.5 |
| 20260510043027 | 67 | 30 | 0.0 | 0.0 | 0.00 | 0.00 | 0.00 | 73 | 1011.3 |
| 20260510042521 | 67 | 33 | 0.0 | 0.0 | 0.00 | 0.00 | 0.00 | 74 | 1011.3 |
| 20260510042021 | 67 | 7 | 0.0 | 0.0 | 0.00 | 0.00 | 0.00 | 73 | 1011.2 |
| 20260510041520 | 67 | 51 | 0.0 | 0.0 | 0.00 | 0.00 | 0.00 | 75 | 1011.1 |
| 20260510041017 | 67 | 69 | 0.0 | 0.0 | 0.00 | 0.00 | 0.00 | 75 | 1011.0 |
| 20260510040514 | 67 | 69 | 0.0 | 0.0 | 0.00 | 0.00 | 0.00 | 74 | 1010.9 |
| 20260510040009 | 67 | 64 | 0.0 | 0.0 | 0.00 | 0.00 | 0.00 | 74 | 1011.0 |
| 20260510035506 | 68 | 64 | 0.0 | 0.0 | 0.00 | 0.00 | 0.00 | 73 | 1010.9 |
| 20260510035004 | 68 | 64 | 0.0 | 0.0 | 0.00 | 0.00 | 0.00 | 72 | 1010.8 |
| 20260510034504 | 68 | 64 | 0.0 | 0.0 | 0.00 | 0.00 | 0.00 | 71 | 1010.8 |
| 20260510033959 | 68 | 64 | 0.0 | 0.0 | 0.00 | 0.00 | 0.00 | 70 | 1010.6 |
| 20260510033455 | 68 | 62 | 0.0 | 0.0 | 0.00 | 0.00 | 0.00 | 68 | 1010.8 |
| 20260510032953 | 68 | 56 | 0.0 | 0.0 | 0.00 | 0.00 | 0.00 | 67 | 1010.8 |
| 20260510032451 | 68 | 56 | 0.0 | 0.0 | 0.00 | 0.00 | 0.00 | 66 | 1010.6 |
| 20260510031951 | 69 | 56 | 0.0 | 0.0 | 0.00 | 0.00 | 0.00 | 67 | 1010.7 |
| 20260510031446 | 69 | 56 | 0.0 | 0.0 | 0.00 | 0.00 | 0.00 | 65 | 1010.8 |
| 20260510030942 | 69 | 56 | 0.0 | 0.0 | 0.00 | 0.00 | 0.00 | 67 | 1010.9 |
| 20260510030437 | 69 | 56 | 0.0 | 0.0 | 0.00 | 0.00 | 0.00 | 66 | 1010.8 |
| 20260510025936 | 69 | 56 | 0.0 | 0.0 | 0.00 | 0.00 | 0.00 | 63 | 1010.7 |
| 20260510025433 | 69 | 56 | 0.0 | 0.0 | 0.00 | 0.00 | 0.00 | 62 | 1010.8 |
| 20260510024930 | 70 | 49 | 0.0 | 0.0 | 0.00 | 0.00 | 0.00 | 61 | 1010.5 |
| 20260510024426 | 69 | 49 | 0.0 | 0.0 | 0.00 | 0.00 | 0.00 | 62 | 1010.7 |
| 20260510023922 | 69 | 49 | 0.0 | 0.0 | 0.00 | 0.00 | 0.00 | 62 | 1010.4 |
| 20260510023419 | 69 | 49 | 0.0 | 0.0 | 0.00 | 0.00 | 0.00 | 60 | 1010.1 |
| 20260510022916 | 69 | 49 | 0.0 | 0.0 | 0.00 | 0.00 | 0.00 | 61 | 1009.9 |
| 20260510022415 | 69 | 57 | 0.0 | 0.0 | 0.00 | 0.00 | 0.00 | 60 | 1009.5 |
| 20260510021914 | 69 | 57 | 0.0 | 0.0 | 0.00 | 0.00 | 0.00 | 60 | 1009.3 |
| 20260510021413 | 70 | 60 | 0.0 | 0.0 | 0.00 | 0.00 | 0.00 | 57 | 1009.0 |
| 20260510020909 | 70 | 60 | 0.0 | 0.0 | 0.00 | 0.00 | 0.00 | 56 | 1009.1 |
| 20260510020404 | 70 | 60 | 0.0 | 0.0 | 0.00 | 0.00 | 0.00 | 54 | 1008.9 |
| 20260510015900 | 70 | 60 | 0.0 | 0.0 | 0.00 | 0.00 | 0.00 | 54 | 1008.9 |
| 20260510015355 | 71 | 60 | 0.0 | 0.0 | 0.00 | 0.00 | 0.00 | 52 | 1008.5 |
| 20260510014851 | 71 | 61 | 0.0 | 0.0 | 0.00 | 0.00 | 0.00 | 51 | 1008.5 |
| 20260510014349 | 72 | 61 | 0.0 | 0.0 | 0.00 | 0.00 | 0.00 | 51 | 1008.6 |
| 20260510013845 | 72 | 60 | 0.0 | 0.0 | 0.00 | 0.00 | 0.00 | 50 | 1008.3 |
| 20260510013340 | 72 | 60 | 0.0 | 0.0 | 0.00 | 0.00 | 0.00 | 49 | 1008.2 |
| 20260510012835 | 73 | 61 | 0.0 | 0.0 | 0.00 | 0.00 | 0.00 | 48 | 1008.3 |
| 20260510012335 | 73 | 61 | 0.0 | 0.0 | 0.00 | 0.00 | 0.00 | 47 | 1008.3 |
| 20260510011830 | 74 | 62 | 0.0 | 0.0 | 0.00 | 0.00 | 0.00 | 47 | 1008.2 |
| 20260510011326 | 75 | 63 | 0.0 | 0.0 | 0.00 | 0.00 | 0.00 | 46 | 1008.1 |
| 20260510010823 | 76 | 62 | 0.0 | 0.0 | 0.00 | 0.00 | 0.00 | 45 | 1008.2 |
| 20260510010320 | 77 | 62 | 0.0 | 0.0 | 0.00 | 0.00 | 0.00 | 43 | 1008.0 |
| 20260510005816 | 78 | 61 | 0.0 | 0.9 | 0.00 | 0.00 | 0.00 | 41 | 1007.9 |
| 20260510005313 | 78 | 71 | 0.0 | 0.0 | 0.00 | 0.00 | 0.00 | 40 | 1007.9 |
| 20260510004811 | 79 | 69 | 0.0 | 0.0 | 0.00 | 0.00 | 0.00 | 40 | 1007.9 |
| 20260510004308 | 79 | 72 | 0.0 | 0.0 | 0.00 | 0.00 | 0.00 | 39 | 1007.9 |
| 20260510003805 | 80 | 76 | 0.0 | 0.0 | 0.00 | 0.00 | 0.00 | 38 | 1008.1 |
| 20260510003302 | 80 | 68 | 0.9 | 1.7 | 0.00 | 0.00 | 0.00 | 38 | 1007.9 |
| 20260510002801 | 81 | 95 | 1.7 | 1.7 | 0.00 | 0.00 | 0.00 | 36 | 1007.6 |
| 20260510002258 | 81 | 70 | 0.0 | 0.0 | 0.00 | 0.00 | 0.00 | 38 | 1007.8 |
| 20260510001755 | 81 | 65 | 0.0 | 0.0 | 0.00 | 0.00 | 0.00 | 40 | 1007.7 |
| 20260510001253 | 81 | 61 | 0.9 | 0.9 | 0.00 | 0.00 | 0.00 | 38 | 1007.8 |
| 20260510000748 | 81 | 77 | 0.0 | 0.9 | 0.00 | 0.00 | 0.00 | 37 | 1007.9 |
| 20260510000248 | 81 | 50 | 0.0 | 0.9 | 0.00 | 0.00 | 0.00 | 39 | 1007.8 |
| 20260509235743 | 82 | 86 | 1.7 | 3.5 | 0.00 | 0.00 | 0.00 | 38 | 1008.0 |
| 20260509235240 | 82 | 68 | 0.9 | 0.9 | 0.00 | 0.00 | 0.00 | 35 | 1007.9 |
| 20260509234735 | 82 | 62 | 0.0 | 0.0 | 0.00 | 0.00 | 0.00 | 37 | 1007.7 |
| 20260509234232 | 82 | 116 | 2.6 | 3.5 | 0.00 | 0.00 | 0.00 | 35 | 1007.9 |
| 20260509233731 | 83 | 85 | 0.9 | 1.7 | 0.00 | 0.00 | 0.00 | 35 | 1008.0 |
| 20260509233228 | 83 | 58 | 0.0 | 0.0 | 0.00 | 0.00 | 0.00 | 37 | 1008.0 |
| 20260509232724 | 83 | 86 | 0.9 | 0.9 | 0.00 | 0.00 | 0.00 | 34 | 1007.9 |
| 20260509232221 | 83 | 61 | 0.9 | 0.9 | 0.00 | 0.00 | 0.00 | 37 | 1008.0 |
| 20260509231717 | 83 | 56 | 0.9 | 0.9 | 0.00 | 0.00 | 0.00 | 38 | 1007.9 |
| 20260509231215 | 83 | 80 | 0.9 | 1.7 | 0.00 | 0.00 | 0.00 | 37 | 1008.0 |
| 20260509230713 | 83 | 114 | 1.7 | 2.6 | 0.00 | 0.00 | 0.00 | 36 | 1008.0 |
| 20260509230209 | 84 | 68 | 0.9 | 1.7 | 0.00 | 0.00 | 0.00 | 37 | 1008.0 |
| 20260509225704 | 84 | 150 | 3.5 | 3.5 | 0.00 | 0.00 | 0.00 | 34 | 1008.0 |
| 20260509225200 | 84 | 61 | 1.7 | 1.7 | 0.00 | 0.00 | 0.00 | 34 | 1008.4 |
| 20260509224656 | 84 | 64 | 0.9 | 0.9 | 0.00 | 0.00 | 0.00 | 33 | 1008.2 |
| 20260509224153 | 84 | 60 | 0.0 | 0.9 | 0.00 | 0.00 | 0.00 | 35 | 1008.2 |
| 20260509223650 | 84 | 63 | 0.0 | 0.0 | 0.00 | 0.00 | 0.00 | 38 | 1008.5 |
| 20260509223147 | 84 | 41 | 0.0 | 0.9 | 0.00 | 0.00 | 0.00 | 34 | 1008.4 |
| 20260509222644 | 84 | 53 | 0.9 | 1.7 | 0.00 | 0.00 | 0.00 | 34 | 1008.1 |
| 20260509222139 | 84 | 75 | 1.7 | 1.7 | 0.00 | 0.00 | 0.00 | 33 | 1008.2 |
| 20260509221636 | 85 | 83 | 0.9 | 1.7 | 0.00 | 0.00 | 0.00 | 31 | 1008.3 |
| 20260509221132 | 85 | 95 | 0.9 | 0.9 | 0.00 | 0.00 | 0.00 | 28 | 1008.3 |
| 20260509220628 | 85 | 97 | 0.9 | 0.9 | 0.00 | 0.00 | 0.00 | 25 | 1008.4 |
| 20260509220124 | 85 | 79 | 0.9 | 0.9 | 0.00 | 0.00 | 0.00 | 27 | 1008.5 |
| 20260509215620 | 85 | 51 | 0.9 | 0.9 | 0.00 | 0.00 | 0.00 | 25 | 1008.4 |
| 20260509215117 | 85 | 47 | 0.9 | 0.9 | 0.00 | 0.00 | 0.00 | 24 | 1008.4 |
| 20260509214614 | 85 | 61 | 0.9 | 1.7 | 0.00 | 0.00 | 0.00 | 25 | 1008.3 |
| 20260509214111 | 85 | 44 | 0.9 | 1.7 | 0.00 | 0.00 | 0.00 | 29 | 1008.5 |
| 20260509213607 | 85 | 4 | 1.7 | 1.7 | 0.00 | 0.00 | 0.00 | 27 | 1008.5 |
| 20260509213104 | 86 | 52 | 0.9 | 0.9 | 0.00 | 0.00 | 0.00 | 28 | 1008.6 |
| 20260509212601 | 85 | 42 | 0.9 | 0.9 | 0.00 | 0.00 | 0.00 | 26 | 1008.6 |
| 20260509212058 | 85 | 48 | 0.0 | 0.9 | 0.00 | 0.00 | 0.00 | 29 | 1008.6 |
| 20260509211553 | 85 | 53 | 0.0 | 0.0 | 0.00 | 0.00 | 0.00 | 31 | 1008.9 |
| 20260509211050 | 86 | 81 | 0.9 | 2.6 | 0.00 | 0.00 | 0.00 | 28 | 1008.8 |
| 20260509210547 | 86 | 53 | 0.0 | 0.9 | 0.00 | 0.00 | 0.00 | 36 | 1008.9 |
| 20260509210044 | 86 | 83 | 0.0 | 0.9 | 0.00 | 0.00 | 0.00 | 34 | 1009.2 |
| 20260509205543 | 86 | 79 | 0.0 | 0.0 | 0.00 | 0.00 | 0.00 | 34 | 1009.2 |
| 20260509205039 | 85 | 46 | 0.9 | 0.9 | 0.00 | 0.00 | 0.00 | 34 | 1009.1 |
| 20260509204536 | 85 | 48 | 0.9 | 1.7 | 0.00 | 0.00 | 0.00 | 33 | 1009.2 |
| 20260509204032 | 84 | 75 | 0.0 | 0.0 | 0.00 | 0.00 | 0.00 | 34 | 1009.2 |
| 20260509203528 | 84 | 60 | 0.9 | 0.9 | 0.00 | 0.00 | 0.00 | 33 | 1009.5 |
| 20260509203027 | 86 | 86 | 0.9 | 1.7 | 0.00 | 0.00 | 0.00 | 30 | 1009.3 |
| 20260509202527 | 86 | 64 | 0.9 | 0.9 | 0.00 | 0.00 | 0.00 | 34 | 1009.2 |
| 20260509202022 | 86 | 110 | 1.7 | 1.7 | 0.00 | 0.00 | 0.00 | 33 | 1009.4 |
| 20260509201517 | 85 | 58 | 0.0 | 0.9 | 0.00 | 0.00 | 0.00 | 31 | 1009.4 |
| 20260509201016 | 85 | 35 | 0.0 | 0.0 | 0.00 | 0.00 | 0.00 | 37 | 1009.4 |
| 20260509200515 | 85 | 78 | 1.7 | 2.6 | 0.00 | 0.00 | 0.00 | 30 | 1009.3 |
| 20260509200013 | 85 | 92 | 0.0 | 0.9 | 0.00 | 0.00 | 0.00 | 37 | 1009.5 |
| 20260509195508 | 85 | 107 | 0.9 | 1.7 | 0.00 | 0.00 | 0.00 | 33 | 1009.6 |
| 20260509195007 | 85 | 59 | 1.7 | 2.6 | 0.00 | 0.00 | 0.00 | 31 | 1009.5 |
| 20260509194503 | 85 | 45 | 1.7 | 1.7 | 0.00 | 0.00 | 0.00 | 31 | 1009.6 |
| 20260509194000 | 86 | 104 | 1.7 | 1.7 | 0.00 | 0.00 | 0.00 | 31 | 1009.9 |
| 20260509193500 | 85 | 86 | 0.0 | 0.0 | 0.00 | 0.00 | 0.00 | 35 | 1009.9 |
| 20260509192957 | 85 | 85 | 1.7 | 1.7 | 0.00 | 0.00 | 0.00 | 34 | 1009.7 |
| 20260509192453 | 85 | 30 | 0.9 | 0.9 | 0.00 | 0.00 | 0.00 | 32 | 1009.9 |
| 20260509191948 | 85 | 86 | 0.0 | 0.9 | 0.00 | 0.00 | 0.00 | 33 | 1010.0 |
| 20260509191444 | 85 | 60 | 0.0 | 0.9 | 0.00 | 0.00 | 0.00 | 34 | 1010.0 |
| 20260509190940 | 85 | 34 | 0.9 | 0.9 | 0.00 | 0.00 | 0.00 | 30 | 1009.9 |
| 20260509190437 | 85 | 45 | 0.9 | 0.9 | 0.00 | 0.00 | 0.00 | 30 | 1009.9 |
| 20260509185935 | 85 | 65 | 0.9 | 0.9 | 0.00 | 0.00 | 0.00 | 34 | 1009.9 |
| 20260509185432 | 84 | 47 | 0.9 | 0.9 | 0.00 | 0.00 | 0.00 | 38 | 1009.9 |
| 20260509184928 | 84 | 50 | 2.6 | 3.5 | 0.00 | 0.00 | 0.00 | 36 | 1009.9 |
| 20260509184426 | 84 | 59 | 1.7 | 1.7 | 0.00 | 0.00 | 0.00 | 36 | 1009.8 |
| 20260509183922 | 85 | 75 | 0.0 | 0.0 | 0.00 | 0.00 | 0.00 | 41 | 1009.9 |
| 20260509183417 | 85 | 23 | 0.9 | 0.9 | 0.00 | 0.00 | 0.00 | 41 | 1010.1 |
| 20260509182914 | 84 | 93 | 0.9 | 0.9 | 0.00 | 0.00 | 0.00 | 41 | 1010.2 |
| 20260509182410 | 84 | 58 | 0.0 | 0.0 | 0.00 | 0.00 | 0.00 | 42 | 1010.1 |
| 20260509181908 | 84 | 64 | 0.9 | 0.9 | 0.00 | 0.00 | 0.00 | 41 | 1010.3 |
| 20260509181405 | 83 | 48 | 0.9 | 0.9 | 0.00 | 0.00 | 0.00 | 42 | 1010.3 |
| 20260509180902 | 83 | 62 | 0.0 | 0.9 | 0.00 | 0.00 | 0.00 | 43 | 1010.3 |
| 20260509180358 | 83 | 51 | 0.0 | 0.9 | 0.00 | 0.00 | 0.00 | 44 | 1010.6 |
| 20260509175855 | 83 | 357 | 1.7 | 1.7 | 0.00 | 0.00 | 0.00 | 40 | 1010.7 |
| 20260509175351 | 82 | 56 | 0.0 | 0.0 | 0.00 | 0.00 | 0.00 | 47 | 1010.6 |
| 20260509174847 | 82 | 96 | 0.0 | 0.9 | 0.00 | 0.00 | 0.00 | 46 | 1010.8 |
| 20260509174343 | 82 | 79 | 0.0 | 0.9 | 0.00 | 0.00 | 0.00 | 49 | 1010.8 |
| 20260509173839 | 82 | 52 | 0.0 | 0.0 | 0.00 | 0.00 | 0.00 | 46 | 1010.8 |
| 20260509173335 | 82 | 148 | 0.0 | 0.9 | 0.00 | 0.00 | 0.00 | 49 | 1011.0 |
| 20260509172831 | 81 | 92 | 0.9 | 1.7 | 0.00 | 0.00 | 0.00 | 50 | 1011.0 |
| 20260509172328 | 81 | 252 | 1.7 | 2.6 | 0.00 | 0.00 | 0.00 | 52 | 1011.0 |
| 20260509171824 | 81 | 51 | 0.0 | 0.9 | 0.00 | 0.00 | 0.00 | 55 | 1010.9 |
| 20260509171320 | 80 | 88 | 0.9 | 1.7 | 0.00 | 0.00 | 0.00 | 56 | 1011.0 |
| 20260509170816 | 80 | 71 | 0.0 | 0.0 | 0.00 | 0.00 | 0.00 | 58 | 1011.1 |
| 20260509170312 | 79 | 57 | 0.0 | 0.0 | 0.00 | 0.00 | 0.00 | 62 | 1011.0 |
| 20260509165812 | 79 | 90 | 0.0 | 0.9 | 0.00 | 0.00 | 0.00 | 61 | 1011.1 |
| 20260509165307 | 79 | 64 | 0.0 | 0.0 | 0.00 | 0.00 | 0.00 | 59 | 1011.2 |
| 20260509164803 | 79 | 88 | 1.7 | 1.7 | 0.00 | 0.00 | 0.00 | 60 | 1011.2 |
| 20260509164259 | 79 | 64 | 0.0 | 0.0 | 0.00 | 0.00 | 0.00 | 64 | 1011.2 |
| 20260509163756 | 78 | 73 | 0.9 | 0.9 | 0.00 | 0.00 | 0.00 | 66 | 1011.2 |
| 20260509163253 | 78 | 45 | 0.0 | 0.9 | 0.00 | 0.00 | 0.00 | 65 | 1011.2 |
| 20260509162752 | 78 | 81 | 0.9 | 0.9 | 0.00 | 0.00 | 0.00 | 62 | 1011.1 |
| 20260509162251 | 78 | 76 | 1.7 | 2.6 | 0.00 | 0.00 | 0.00 | 65 | 1011.2 |
| 20260509161747 | 78 | 44 | 0.0 | 0.9 | 0.00 | 0.00 | 0.00 | 68 | 1011.2 |
| 20260509161243 | 77 | 48 | 0.0 | 0.0 | 0.00 | 0.00 | 0.00 | 70 | 1011.0 |
| 20260509160738 | 76 | 56 | 0.0 | 0.0 | 0.00 | 0.00 | 0.00 | 71 | 1011.2 |
| 20260509160235 | 76 | 55 | 0.0 | 0.0 | 0.00 | 0.00 | 0.00 | 72 | 1011.0 |
| 20260509155730 | 76 | 75 | 1.7 | 1.7 | 0.00 | 0.00 | 0.00 | 71 | 1011.1 |
| 20260509155227 | 76 | 75 | 0.9 | 0.9 | 0.00 | 0.00 | 0.00 | 73 | 1010.9 |
| 20260509154723 | 75 | 49 | 0.9 | 0.9 | 0.00 | 0.00 | 0.00 | 71 | 1010.9 |
| 20260509154220 | 75 | 48 | 0.0 | 0.0 | 0.00 | 0.00 | 0.00 | 70 | 1010.9 |
| 20260509153717 | 75 | 51 | 0.9 | 0.9 | 0.00 | 0.00 | 0.00 | 70 | 1010.8 |
| 20260509153214 | 74 | 41 | 0.0 | 0.0 | 0.00 | 0.00 | 0.00 | 72 | 1011.0 |
| 20260509152710 | 74 | 89 | 0.9 | 1.7 | 0.00 | 0.00 | 0.00 | 70 | 1010.8 |
| 20260509152207 | 73 | 66 | 0.0 | 0.0 | 0.00 | 0.00 | 0.00 | 76 | 1010.9 |
| 20260509151704 | 73 | 50 | 0.0 | 0.0 | 0.00 | 0.00 | 0.00 | 75 | 1011.0 |
| 20260509151201 | 73 | 57 | 0.0 | 0.0 | 0.00 | 0.00 | 0.00 | 77 | 1010.9 |
| 20260509150658 | 73 | 53 | 0.0 | 0.0 | 0.00 | 0.00 | 0.00 | 75 | 1011.0 |
| 20260509150156 | 72 | 48 | 0.0 | 0.0 | 0.00 | 0.00 | 0.00 | 75 | 1011.0 |
| 20260509145652 | 72 | 118 | 0.9 | 0.9 | 0.00 | 0.00 | 0.00 | 76 | 1010.9 |
| 20260509145147 | 71 | 52 | 0.0 | 0.0 | 0.00 | 0.00 | 0.00 | 75 | 1011.0 |
| 20260509144644 | 71 | 45 | 0.0 | 0.9 | 0.00 | 0.00 | 0.00 | 78 | 1011.1 |